DateTime,Index
2000092112,0.0
2000092118,0.0
2000092200,1225.0
2000092206,1600.0
2000092212,2025.0
2000092218,2025.0
2000092300,2500.0
2000092306,3025.0
2000092312,4900.0
2000092318,7225.0
2000092400,11025.0
2000092406,10000.0
2000092412,10000.0
2000092418,10000.0
2000092500,9025.0
2000092506,9025.0
2000092512,8100.0
2000092518,8100.0
2000092600,8100.0
2000092606,7225.0
2000092612,5625.0
2000092618,5625.0
2000092700,6400.0
2000092706,7225.0
2000092712,8100.0
2000092718,9025.0
2000092800,10000.0
2000092806,11025.0
2000092812,12100.0
2000092818,14400.0
2000092900,13225.0
2000092906,12100.0
2000092912,11025.0
2000092918,8100.0
2000093000,7225.0
2000093006,6400.0
2000093012,5625.0
2000093018,4900.0
2000100100,4225.0
2000100106,3600.0
2000100112,3025.0
2000100118,3025.0
2000100200,3025.0
2000100206,3600.0
2000100212,3600.0
2000100218,3600.0
2000100300,3600.0
2000100306,3600.0
2000100312,3025.0
2000100318,2025.0
2000100400,2025.0
2000100406,2025.0
